This demonstration page uses our WeatherBlox Daily Observations layout. Learn more.

Left ArrowRight Arrow

53.62937, 11.41316

Hourly Observations for December 31, 2017

Temp ( °F °C ) Dew Point ( °F °C ) Humidity (%) Winds ( mph kmh ) Pressure ( in mb ) Visibility ( mi km ) Precip ( " mm )
12:00 am 00:00 Mostly Cloudy 43 6 39 4 87 87 WNW 24 39 29.35 994 30 48 N/A
12:20 am 00:20 Mostly Cloudy 43 6 39 4 87 87 WNW 24 39 29.38 995 30 48 N/A
12:45 am 00:45 Mostly Cloudy 41 5 37 3 87 87 WNW 16 26 29.41 996 30 48 N/A
1:20 am 01:20 Mostly Cloudy 41 5 37 3 87 87 WNW 20 31 29.44 997 30 48 N/A
2:20 am 02:20 Mostly Cloudy 41 5 37 3 87 87 WNW 15 24 29.47 998 30 48 N/A
2:48 am 02:48 Mostly Cloudy with Drizzle 41 5 37 3 87 87 WNW 12 19 29.50 999 30 48 N/A
3:20 am 03:20 Mostly Cloudy 41 5 39 4 93 93 W 8 13 29.50 999 30 48 N/A
4:20 am 04:20 Mostly Cloudy with Light Rain 41 5 41 5 100 100 W 8 13 29.53 1000 30 48 N/A
5:20 am 05:20 Mostly Cloudy with Light Rain 43 6 41 5 93 93 W 12 19 29.53 1000 30 48 N/A
6:20 am 06:20 Mostly Cloudy 43 6 41 5 93 93 WSW 8 13 29.53 1000 30 48 N/A
7:20 am 07:20 Partly Cloudy 41 5 37 3 87 87 WSW 7 11 29.56 1001 30 48 N/A
8:20 am 08:20 Mostly Clear 39 4 37 3 93 93 SSW 3 6 29.56 1001 30 48 N/A
9:20 am 09:20 Mostly Cloudy 37 3 37 3 100 100 S 5 7 29.56 1001 30 48 N/A
10:20 am 10:20 Mostly Cloudy with Light Rain 39 4 37 3 93 93 SSE 3 6 29.56 1001 30 48 N/A
11:20 am 11:20 Mostly Cloudy with Drizzle 41 5 39 4 93 93 SSE 5 7 29.53 1000 30 48 N/A
11:31 am 11:31 Mostly Cloudy with Drizzle 41 5 39 4 93 93 SSE 5 7 29.53 1000 3 5 N/A
11:37 am 11:37 Cloudy with Drizzle 41 5 41 5 100 100 SSE 5 7 29.50 999 2 3 N/A
12:00 pm 12:00 Mostly Cloudy with Rain 43 6 41 5 93 93 SSE 5 7 29.50 999 3 5 N/A
12:20 pm 12:20 Cloudy with Rain 43 6 43 6 100 100 S 7 11 29.50 999 2 4 N/A
12:50 pm 12:50 Mostly Cloudy with Drizzle 43 6 43 6 100 100 SSE 7 11 29.47 998 2 3 N/A
1:00 pm 13:00 Mostly Cloudy with Drizzle 43 6 43 6 100 100 SSE 7 11 29.47 998 2 3 N/A
1:20 pm 13:20 Mostly Cloudy with Drizzle 43 6 43 6 100 100 SSE 7 11 29.44 997 2 3 N/A
1:41 pm 13:41 Mostly Cloudy with Drizzle 45 7 45 7 100 100 S 7 11 29.44 997 3 5 N/A
2:05 pm 14:05 Mostly Cloudy with Drizzle 45 7 45 7 100 100 S 9 15 29.41 996 2 3 N/A
2:20 pm 14:20 Mostly Cloudy with Drizzle 46 8 46 8 100 100 SSW 9 15 29.41 996 30 48 N/A
2:45 pm 14:45 Mostly Cloudy with Drizzle 48 9 46 8 94 94 SSW 9 15 29.41 996 3 4 N/A
3:20 pm 15:20 Mostly Cloudy with Drizzle 50 10 48 9 94 94 SW 9 15 29.41 996 30 48 N/A
3:41 pm 15:41 Mostly Cloudy 50 10 48 9 94 94 SW 12 19 29.41 996 30 48 N/A
4:20 pm 16:20 Mostly Cloudy 52 11 48 9 88 88 SW 12 19 29.38 995 30 48 N/A
5:20 pm 17:20 Mostly Cloudy with Light Rain 52 11 50 10 94 94 SW 13 20 29.38 995 30 48 N/A
5:31 pm 17:31 Mostly Cloudy with Light Rain 52 11 48 9 88 88 SW 13 20 29.38 995 30 48 N/A
5:44 pm 17:44 Mostly Cloudy with Drizzle 52 11 48 9 88 88 SW 15 24 29.38 995 4 6 N/A
6:00 pm 18:00 Mostly Cloudy with Drizzle 52 11 50 10 94 94 SW 12 19 29.38 995 30 48 N/A
6:20 pm 18:20 Mostly Cloudy with Drizzle 52 11 48 9 88 88 SW 13 20 29.38 995 4 6 N/A
7:20 pm 19:20 Cloudy with Rain 50 10 50 10 100 100 SW 8 13 29.38 995 3 5 N/A
8:20 pm 20:20 Mostly Cloudy with Rain 50 10 50 10 100 100 WSW 12 19 29.38 995 4 6 N/A
8:49 pm 20:49 Mostly Cloudy with Drizzle 48 9 46 8 94 94 WSW 7 11 29.38 995 4 6 N/A
9:20 pm 21:20 Cloudy with Rain 48 9 46 8 94 94 SW 3 6 29.38 995 3 5 N/A
9:49 pm 21:49 Mostly Cloudy with Rain 48 9 46 8 94 94 SSW 3 6 29.38 995 3 5 N/A
10:20 pm 22:20 Mostly Cloudy with Light Rain 48 9 46 8 94 94 SW 3 6 29.35 994 4 7 N/A
11:20 pm 23:20 Mostly Cloudy with Drizzle 48 9 48 9 100 100 SSW 5 7 29.35 994 2 3 N/A
11:43 pm 23:43 Mostly Cloudy with Rain 48 9 48 9 100 100 S 6 9 29.35 994 3 5 N/A
11:49 pm 23:49 Mostly Cloudy with Rain 48 9 48 9 100 100 S 7 11 29.35 994 3 5 N/A

Powered by AerisWeather